Regional Weather Roundup
Issued by NWS

Home | Current Version | Previous Version | Text Only | Print | Product List | Glossary On
Versions: 1 2 3 4 5 6 7 8 9 10 11 12 13 14 15 16 17 18 19 20 21 22 23 24 25 26 27 28 29 30 31 32 33 34 35 36 37 38 39 40 41 42 43 44 45 46 47 48 49 50
000
ASUS46 KSEW 202010
RWRWA

WASHINGTON REGIONAL WEATHER ROUNDUP
NATIONAL WEATHER SERVICE SEATTLE WA
1200 PM PST FRI JAN 20 2017

NOTE:"FAIR" INDICATES FEW OR NO CLOUDS BELOW 12,000 FEET WITH NO
SIGNIFICANT WEATHER AND/OR OBSTRUCTIONS TO VISIBILITY.

WAZ507-509-555>559-202100-
SEATTLE, TACOMA, EVERETT, AND VICINITY

CITY           SKY/WX    TMP DP  RH WIND       PRES   REMARKS
EVERETT        CLOUDY    44  36  73 CALM      29.12F
BOEING FIELD   CLOUDY    52  32  46 SE12      29.11F
RENTON         CLOUDY    52  31  44 E12G25    29.10F
SEATAC AIRPORT CLOUDY    51  31  46 SE15G28   29.11S
JBLM-MCCHORD   CLOUDY    44  42  94 NW5       29.09F
PUYALLUP         N/A     43  37  81 CALM      29.09F
BREMERTON      CLOUDY    45  37  76 N6        29.15S
JBLM-FT LEWIS  CLOUDY    43  43  97 W5        29.09F
TACOMA NARROWS CLOUDY    45  38  76 N5        29.10F
$$

WAZ001-503-506-510-514-515-202100-
NORTH INTERIOR

CITY           SKY/WX    TMP DP  RH WIND       PRES   REMARKS
BELLINGHAM     MOSUNNY   48  38  68 N12G18    29.16F
FRIDAY HARBOR  MOSUNNY   49  33  54 NE7       29.15F
EASTSOUND      MOSUNNY   46  36  66 E9        29.15F
PORT ANGELES   CLOUDY    43  38  82 CALM      29.13F
EDIZ HOOK      FAIR      43  38  82 S5        29.13F
PORT TOWNSEND    N/A    N/A N/A N/A MISG        N/A
NAS WHIDBEY    NOT AVBL
ARLINGTON      NOT AVBL
BURLINGTON     SUNNY     46  36  66 NE9       29.14F
$$

WAZ020-022-039-040-504-511-512-202100-
SOUTHWEST INTERIOR

CITY           SKY/WX    TMP DP  RH WIND       PRES   REMARKS
SHELTON        CLOUDY    48  37  65 CALM      29.09S
OLYMPIA        CLOUDY    44  38  79 N5        29.10F
CHEHALIS       FAIR      43  43 100 CALM      29.10F
KELSO          CLOUDY    45  40  82 S8        29.11S
VANCOUVER      CLOUDY    41  36  82 S3        29.11S
SCAPPOOSE, OR  LGT RAIN  42  40  92 CALM      29.11S FOG
PORTLAND, OR   LGT RAIN  41  36  82 SE8       29.10F
$$

WAZ021-516-517-202100-
WASHINGTON COAST

CITY           SKY/WX    TMP DP  RH WIND       PRES   REMARKS
FORKS          CLOUDY    44  39  82 NE9       29.07S
HOQUIAM        LGT RAIN  45  40  82 NE9       29.07F
ASTORIA, OR    CLOUDY    48  37  65 SE9       29.05F
$$

WAZ019-023-024-040-567>569-202100-
CASCADE MOUNTAINS AND COLUMBIA GORGE

CITY           SKY/WX    TMP DP  RH WIND       PRES   REMARKS
STAMPEDE PASS  NOT AVBL
TROUTDALE, OR  CLOUDY    40  35  83 E24G31    29.11F
THE DALLES, OR LGT SNOW  33  33 100 N3        29.22F VSB 1
$$

WAZ026-027-041>044-520-521-202100-
EAST SLOPES

CITY           SKY/WX    TMP DP  RH WIND       PRES   REMARKS
OMAK           CLOUDY    35  31  85 N10       29.32F WCI  27
WENATCHEE      LGT SNOW  33  31  92 CALM      29.29F FOG
ELLENSBURG     CLOUDY    35  30  82 W5        29.22F
YAKIMA         CLOUDY    38  33  82 SW8       29.24F
$$

WAZ028-034-035-202100-
COLUMBIA BASIN

CITY           SKY/WX    TMP DP  RH WIND       PRES   REMARKS
EPHRATA        CLOUDY    38  29  70 N13       29.25F
MOSES LAKE     CLOUDY    38  33  82 NE7       29.26F
PASCO          CLOUDY    30  30 100 CALM      29.28F FOG
HERMISTON, OR  CLOUDY    36  32  85 VRB3      29.19F
$$

WAZ036>038-202100-
NORTHEAST WASHINGTON

CITY           SKY/WX    TMP DP  RH WIND       PRES   REMARKS
SPOKANE GEIGER MOSUNNY   39  31  72 E9        29.29F
SPOKANE FELTS  MOSUNNY   42  32  67 CALM      29.31F
FAIRCHILD AFB  SUNNY     37  33  87 E12       29.28F
COEURDALENE,ID SUNNY     38  33  82 N13       29.31F
DEER PARK      CLOUDY    41  31  67 N12       29.31F
$$

WAZ029>033-202100-
SOUTHEAST WASHINGTON

CITY           SKY/WX    TMP DP  RH WIND       PRES   REMARKS
PULLMAN        MOSUNNY   38  29  70 E20G29    29.28F
LEWISTON, ID   MOSUNNY   42  31  64 E15       29.28F
WALLA WALLA    CLOUDY    37  29  72 N10       29.22F
PENDLETON, OR  CLOUDY    43  31  62 E16       29.17F
$$



USA.gov is the U.S. government's official web portal to all federal, state and local government web resources and services.